Location: Newark
(51.3656°N, 14.2631°E)
Time: 17:28:16
(UTC+00:00)

X-37B - Visible Passes

Search period start: 25 February 2021 00:00
Search period end: 07 March 2021 00:00
Orbit: 383 x 391 km, 45.0° (Epoch: 10 February)

Date Brightness Start Highest point End Pass type
(mag) Time Alt. Az. Time Alt. Az. Time Alt. Az.
25 Feb 2.9 03:31:20 19° SE 03:31:20 19° SE 03:32:38 10° ESE visible
25 Feb 2.5 05:03:37 10° WSW 05:06:03 20° SSW 05:08:28 10° SE visible
26 Feb 2.1 04:07:49 24° S 04:07:52 24° S 04:10:29 10° SE visible
27 Feb 3.6 03:12:04 12° SE 03:12:04 12° SE 03:12:22 10° SE visible
27 Feb 2.7 04:44:21 13° SW 04:45:42 16° SSW 04:47:44 10° SSE visible
28 Feb 2.8 03:48:39 17° SSE 03:48:39 17° SSE 03:49:59 10° SE visible
01 Mar 3.0 04:25:18 12° SSW 04:25:20 12° SSW 04:26:28 10° S visible
